GW7202 Weather Reports


time (UTC)temp
F
wind
direction
speed
knots
gust
knots
rain 1hr
in
rain 24hr
in
rain mn
in
humidity
%
barometer
mb
20260510174505 67 297 2.6 7.8 0.00 0.01 0.01 41 1019.5
20260510173022 67 326 3.5 9.6 0.00 0.01 0.01 43 1019.5
20260510171522 67 52 1.7 9.6 0.00 0.01 0.01 42 1019.5
20260510170018 66 312 2.6 7.8 0.00 0.01 0.01 44 1019.6
20260510164519 66 296 2.6 7.8 0.00 0.01 0.01 42 1019.5
20260510163015 67 328 3.5 10.4 0.00 0.01 0.01 45 1019.4
20260510161512 66 15 2.6 7.0 0.00 0.01 0.01 45 1019.4
20260510160008 66 319 1.7 7.0 0.00 0.01 0.01 44 1019.6
20260510154531 65 311 1.7 6.1 0.00 0.01 0.01 44 1019.7
20260510153041 65 20 1.7 5.2 0.00 0.01 0.01 50 1019.6
20260510151520 64 318 1.7 12.2 0.00 0.01 0.01 47 1019.7
20260510150018 64 322 1.7 7.8 0.00 0.01 0.01 50 1019.5
20260510144541 63 304 1.7 7.8 0.00 0.01 0.01 53 1019.4
20260510143013 62 309 1.7 5.2 0.00 0.01 0.01 58 1019.3
20260510141513 62 30 2.6 7.8 0.00 0.01 0.01 58 1018.9
20260510140025 61 44 1.7 7.0 0.00 0.01 0.01 61 1018.5
20260510134524 60 304 2.6 8.7 0.00 0.01 0.01 66 1018.2
20260510133024 60 311 0.9 4.3 0.00 0.01 0.01 69 1018.2
20260510131521 58 12 0.9 2.6 0.00 0.01 0.01 74 1017.9
20260510130019 57 319 0.9 3.5 0.00 0.01 0.01 78 1017.8
20260510124520 56 36 0.9 5.2 0.00 0.01 0.01 80 1017.9
20260510123015 56 325 0.0 2.6 0.00 0.01 0.01 82 1017.6
20260510121512 56 311 1.7 3.5 0.00 0.01 0.01 83 1017.3
20260510120029 56 312 0.9 6.1 0.00 0.01 0.01 85 1017.4
20260510114527 57 307 0.9 3.5 0.00 0.01 0.01 87 1016.9
20260510113026 57 309 0.9 3.5 0.00 0.01 0.01 88 1016.8
20260510111523 58 360 0.0 5.2 0.00 0.01 0.01 89 1016.4
20260510110025 58 344 0.0 1.7 0.00 0.01 0.01 91 1015.9
20260510104519 58 55 1.7 3.5 0.00 0.01 0.01 92 1015.6
20260510103016 58 337 0.9 3.5 0.00 0.01 0.01 93 1015.4
20260510101513 58 71 0.9 2.6 0.00 0.01 0.01 93 1015.1
20260510100012 58 317 0.0 0.9 0.00 0.01 0.01 92 1015.1
20260510094506 58 58 0.0 0.9 0.00 0.01 0.01 92 1015.4
20260510093025 58 331 1.7 4.3 0.00 0.01 0.01 92 1015.5
20260510091526 58 45 0.0 1.7 0.00 0.01 0.01 92 1014.6
20260510090023 58 319 0.9 1.7 0.00 0.01 0.01 92 1014.6
20260510084540 58 105 0.0 0.9 0.01 0.01 0.01 92 1014.4
20260510083015 59 311 0.0 0.0 0.01 0.01 0.01 91 1014.0
20260510081533 59 311 0.0 0.0 0.01 0.01 0.01 90 1013.7
20260510080012 60 311 0.9 1.7 0.01 0.01 0.01 88 1013.6
20260510074528 60 75 0.0 3.5 0.00 0.00 0.00 85 1013.7
20260510073036 60 256 0.9 1.7 0.00 0.00 0.00 85 1014.1
20260510071526 61 55 0.0 0.9 0.00 0.00 0.00 83 1013.5
20260510070024 60 55 0.9 1.7 0.00 0.00 0.00 84 1013.7
20260510064516 60 323 0.0 0.9 0.00 0.00 0.00 86 1013.7
20260510063017 60 147 0.0 0.9 0.00 0.00 0.00 83 1013.6
20260510061514 61 147 0.0 0.0 0.00 0.00 0.00 85 1013.3
20260510060036 62 147 0.0 0.9 0.00 0.00 0.00 82 1013.3
20260510054528 62 150 0.0 0.9 0.00 0.00 0.00 77 1013.0
20260510053028 63 356 0.0 0.9 0.00 0.00 0.00 80 1013.0
20260510051522 63 352 0.0 0.9 0.00 0.00 0.00 76 1013.0
20260510050024 63 351 0.9 0.9 0.00 0.00 0.00 74 1012.7
20260510044522 64 283 0.0 0.9 0.00 0.00 0.00 72 1012.4
20260510043016 64 283 0.9 1.7 0.00 0.00 0.00 71 1012.4
20260510041534 65 309 0.9 2.6 0.00 0.00 0.00 69 1012.3
20260510040027 66 314 0.9 5.2 0.00 0.00 0.00 68 1012.2
20260510034529 66 307 3.5 7.8 0.00 0.01 0.00 65 1012.2
20260510033027 62 311 4.3 6.1 0.00 0.09 0.00 73 1011.9
20260510031524 60 150 0.0 0.9 0.00 0.27 0.00 79 1011.2
20260510030027 58 226 0.0 0.9 0.00 0.38 0.00 87 1011.0
20260510024529 58 226 0.0 0.0 0.00 0.42 0.00 87 1010.7
20260510023019 58 226 0.0 0.0 0.00 0.48 0.00 86 1010.5
20260510021516 59 226 0.0 0.9 0.00 0.62 0.00 85 1010.4
20260510020011 60 226 0.0 0.0 0.00 0.70 0.00 84 1010.1
20260510014508 61 226 0.0 0.9 0.00 0.74 0.00 82 1009.9
20260510013005 63 226 0.0 0.0 0.00 0.74 0.00 78 1009.7
20260510011507 65 226 0.0 0.0 0.00 0.74 0.00 74 1009.5
20260510010025 68 226 0.0 0.9 0.00 0.74 0.00 69 1009.4
20260510004521 71 226 0.0 0.9 0.00 0.74 0.00 59 1009.3
20260510003027 75 226 0.0 0.0 0.00 0.74 0.00 50 1009.2
20260510001516 80 255 0.0 0.0 0.00 0.76 0.00 39 1009.1
20260510000014 81 255 0.0 0.9 0.00 0.79 0.00 35 1009.0
20260509234513 80 233 0.9 2.6 0.00 0.80 0.00 36 1009.0
20260509233005 81 283 1.7 3.5 0.00 0.80 0.00 34 1009.1
20260509231528 80 242 0.9 3.5 0.00 0.80 0.00 34 1009.1
20260509230024 80 274 3.5 5.2 0.00 0.80 0.00 34 1009.1
20260509224522 80 270 2.6 6.1 0.00 0.80 0.00 33 1009.0
20260509223020 81 236 0.9 7.8 0.00 0.80 0.00 37 1009.0
20260509221517 80 282 3.5 7.0 0.00 0.80 0.00 33 1008.9
20260509220016 80 257 2.6 8.7 0.00 0.80 0.00 34 1009.0
20260509214510 80 327 3.5 6.1 0.00 0.80 0.00 33 1009.0
20260509213009 80 256 0.9 8.7 0.00 0.80 0.00 39 1009.1
20260509211527 80 302 5.2 8.7 0.00 0.80 0.00 36 1009.2
20260509210027 80 301 1.7 10.4 0.00 0.80 0.00 37 1009.3
20260509204524 80 290 3.5 7.8 0.00 0.80 0.00 38 1009.5
20260509203018 80 243 1.7 7.0 0.00 0.80 0.00 41 1009.5
20260509201519 80 287 3.5 9.6 0.00 0.80 0.00 37 1009.6
20260509200015 80 148 1.7 7.8 0.00 0.80 0.00 36 1009.8
20260509194521 79 237 1.7 9.6 0.00 0.80 0.00 37 1009.8
20260509193028 79 267 3.5 7.8 0.00 0.80 0.00 41 1009.9
20260509191524 79 236 2.6 7.8 0.00 0.80 0.00 37 1010.0
20260509190025 78 277 3.5 8.7 0.00 0.80 0.00 43 1010.1
20260509184535 77 336 4.3 11.3 0.00 0.80 0.00 40 1010.1
20260509183021 77 216 4.3 11.3 0.00 0.80 0.00 43 1010.0
20260509181519 77 342 3.5 8.7 0.00 0.80 0.00 42 1010.0
20260509180021 77 276 3.5 7.8 0.00 0.80 0.00 45 1010.1